Fallon NAS, NV

12:27 AM PST on December 17, 2017 (GMT -0800)
Fallon Naval Air Station

Weather History for KNFL - August, 2014

Change the Weather History Date:

Tuesday, August 19, 2014

  Actual Average Record
Temperature  
Mean Temperature 76 °F -  
Max Temperature 93 °F 85 °F 101 °F (1960)
Min Temperature 59 °F 51 °F 41 °F (1978)
Cooling Degree Days 11    
Growing Degree Days 26 (Base 50)    
Moisture  
Dew Point 29 °F    
Average Humidity 18    
Maximum Humidity 31    
Minimum Humidity 10    
Precipitation  
Precipitation 0.00 in - - ()
Sea Level Pressure  
Sea Level Pressure 29.77 in    
Wind  
Wind Speed 9 mph (West)    
Max Wind Speed 14 mph    
Max Gust Speed 20 mph    
Visibility 10 miles    
Events      
Averages and records for this station are not official NWS values.
T = Trace of Precipitation, MM = Missing Value Source: NWS Daily Summary

Daily Weather History Graph

Daily Weather History Graph

Search for Another Location

Airport or City:

Trip Planner

Search our weather history database for the weather conditions in past years. The results will help you decide how hot, cold, wet, or windy it might be!

Date:

Astronomy

Aug. 19, 2014 Rise Set
Actual Time 6:11 AM PDT 7:44 PM PDT
Civil Twilight 5:42 AM PDT 8:13 PM PDT
Nautical Twilight 5:08 AM PDT 8:47 PM PDT
Astronomical Twilight 4:32 AM PDT 9:23 PM PDT
Moon 1:07 AM PDT (8/19) 3:44 PM PDT (8/19)
Length of Visible Light 14h 30m
Length of Day
13h 33m
Waning Crescent, 28% of the Moon is Illuminated
Aug 19
Waning Crescent
Aug 25
New
Sep 2
First Quarter
Sep 8
Full
Sep 15
Last Quarter

Hourly Weather History & Observations

Time (PDT) Temp. Dew Point Humidity Pressure Visibility Wind Dir Wind Speed Gust Speed Precip Events Conditions
12:56 AM 71.1 °F 27.0 °F 19% 29.79 in 10.0 mi WNW 9.2 mph - N/A   Clear
1:56 AM 73.0 °F 30.0 °F 20% 29.79 in 10.0 mi West 13.8 mph - N/A   Clear
2:56 AM 71.1 °F 28.9 °F 21% 29.78 in 10.0 mi West 12.7 mph - N/A   Clear
3:56 AM 62.1 °F 28.9 °F 29% 29.79 in 10.0 mi SSE 8.1 mph - N/A   Clear
4:56 AM 61.0 °F 28.0 °F 29% 29.80 in 10.0 mi SE 5.8 mph - N/A   Clear
5:56 AM 59.0 °F 28.0 °F 31% 29.80 in 10.0 mi SSE 8.1 mph - N/A   Clear
6:19 AM 59.0 °F 28.0 °F 31% 29.87 in 10.0 mi South 8.1 mph - N/A   Scattered Clouds
6:56 AM 63.0 °F 30.0 °F 29% 29.81 in 10.0 mi South 8.1 mph - N/A   Mostly Cloudy
7:56 AM 71.1 °F 33.1 °F 25% 29.82 in 10.0 mi SSW 5.8 mph - N/A   Mostly Cloudy
8:56 AM 78.1 °F 30.0 °F 17% 29.82 in 10.0 mi West 11.5 mph - N/A   Mostly Cloudy
9:56 AM 82.0 °F 28.9 °F 14% 29.82 in 10.0 mi WNW 13.8 mph - N/A   Mostly Cloudy
10:56 AM 86.0 °F 28.0 °F 12% 29.81 in 10.0 mi NNW 6.9 mph - N/A   Mostly Cloudy
11:56 AM 86.0 °F 28.0 °F 12% 29.80 in 10.0 mi Variable 3.5 mph - N/A   Overcast
12:56 PM 90.0 °F 28.9 °F 11% 29.78 in 10.0 mi Variable 6.9 mph - N/A   Overcast
1:56 PM 91.0 °F 28.0 °F 10% 29.75 in 10.0 mi West 12.7 mph 19.6 mph N/A   Mostly Cloudy
2:56 PM 91.9 °F 27.0 °F 10% 29.73 in 10.0 mi North - - N/A   Mostly Cloudy
3:56 PM 93.0 °F 28.0 °F 10% 29.71 in 10.0 mi NW 11.5 mph - N/A   Mostly Cloudy
4:56 PM 93.0 °F 30.0 °F 11% 29.70 in 10.0 mi NW 10.4 mph 16.1 mph N/A   Mostly Cloudy
5:56 PM 91.9 °F 28.9 °F 11% 29.69 in 10.0 mi West 9.2 mph - N/A   Mostly Cloudy
6:56 PM 91.0 °F 28.0 °F 10% 29.69 in 10.0 mi West 13.8 mph - N/A   Mostly Cloudy
7:56 PM 84.0 °F 28.9 °F 14% 29.70 in 10.0 mi WNW 6.9 mph - N/A   Mostly Cloudy
8:56 PM 81.0 °F 28.0 °F 14% 29.73 in 10.0 mi North 6.9 mph - N/A   Scattered Clouds
9:56 PM 80.1 °F 33.1 °F 18% 29.75 in 10.0 mi NW 11.5 mph - N/A   Partly Cloudy
10:56 PM 77.0 °F 35.1 °F 22% 29.77 in 10.0 mi NW 9.2 mph - N/A   Clear
11:56 PM 69.1 °F 34.0 °F 27% 29.78 in 10.0 mi East 4.6 mph - N/A   Clear